Location: Bosdarros
(43.2167°N, 0.3667°W)
Time: 14:51:39
(UTC+00:00)

Cosmos 389 Rocket - Pass Details

Date: 22 April 2021
Orbit: 441 x 472 km, 81.1° (Epoch: 12 May)

Event Time Altitude Azimuth Distance (km) Brightness Sun altitude
Rises 19:16:29 0° 157° (SSE) 2,471 5.7 -4.9°
Reaches altitude 10° 19:18:54 10° 140° (SE) 1,608 4.7 -5.3°
Maximum altitude 19:21:33 20° 91° (E) 1,122 3.9 -5.8°
Drops below altitude 10° 19:24:15 10° 42° (NE) 1,632 5.1 -6.2°
Sets 19:26:43 0° 25° (NNE) 2,519 6.2 -6.6°
